Location: �clusier
(49.9361°N, 2.7869°E)
Time: 08:12:32
(UTC+00:00)

ATLAS CENTAUR R/B - Pass Details

Date: 16 June 2021
Orbit: 472 x 671 km, 64.6° (Epoch: 13 June)

Event Time Altitude Azimuth Distance (km) Brightness Sun altitude
Rises 23:15:30 0° 308° (NW) 2,807 5.7 -16.3°
Reaches altitude 10° 23:18:14 10° 290° (WNW) 1,943 4.5 -16.4°
Maximum altitude 23:21:17 19° 246° (WSW) 1,497 3.3 -16.4°
Enters shadow 23:22:33 17° 224° (SW) 1,600 3.3 -16.4°
